Weather History for KLIT - March, 2013

Change the Weather History Date:

Sunday, March 17, 2013

  Actual Average Record
Temperature  
Mean Temperature 55 °F 54 °F  
Max Temperature 64 °F 64 °F 84 °F (1908)
Min Temperature 45 °F 43 °F 24 °F (1892)
Degree Days  
Heating Degree Days 10 12  
Month to date heating degree days 256 238  
Since 1 July heating degree days 2542 2751  
Cooling Degree Days 0 0  
Month to date cooling degree days 3 0  
Year to date cooling degree days 8 2  
Growing Degree Days 4 (Base 50)    
Moisture  
Dew Point 46 °F    
Average Humidity 84    
Maximum Humidity 100    
Minimum Humidity 67    
Precipitation  
Precipitation T in 0.15 in 2.46 in (1953)
Month to date precipitation 0.89 2.49  
Year to date precipitation 10.45 9.70  
Snow  
Snow 0.00 in 0.00 in 8.00 in (1892)
Month to date snowfall 0.0 0.3  
Since 1 July snowfall 10.6 3.4  
Snow Depth 0.00 in    
Sea Level Pressure  
Sea Level Pressure 29.83 in    
Wind  
Wind Speed 8 mph (ENE)    
Max Wind Speed 15 mph    
Max Gust Speed 20 mph    
Visibility 5 miles    
Events Rain    
T = Trace of Precipitation, MM = Missing Value Source: NWS Daily Summary

Daily Weather History Graph

Daily Weather History Graph

Search for Another Location

Airport or City:

Trip Planner

Search our weather history database for the weather conditions in past years. The results will help you decide how hot, cold, wet, or windy it might be!

Date:

Astronomy

Mar. 17, 2013 Rise Set
Actual Time 7:16 AM CDT 7:18 PM CDT
Civil Twilight 6:51 AM CDT 7:43 PM CDT
Nautical Twilight 6:21 AM CDT 8:12 PM CDT
Astronomical Twilight 5:52 AM CDT 8:42 PM CDT
Moon 10:42 AM CDT (3/17) 12:13 AM CDT (3/17)
Length of Visible Light 12h 52m
Length of Day
12h 02m
Waxing Crescent, 31% of the Moon is Illuminated
Mar 17
Waxing Crescent
Mar 19
First Quarter
Mar 27
Full
Apr 2
Last Quarter
Apr 10
New

Hourly Weather History & Observations

Time (CDT) Temp. Windchill Dew Point Humidity Pressure Visibility Wind Dir Wind Speed Gust Speed Precip Events Conditions
12:53 AM 57.0 °F - 48.0 °F 72% 29.85 in 10.0 mi Calm Calm - N/A   Scattered Clouds
1:53 AM 61.0 °F - 50.0 °F 67% 29.85 in 10.0 mi South 9.2 mph - N/A   Mostly Cloudy
2:53 AM 63.0 °F - 52.0 °F 67% 29.84 in 10.0 mi South 9.2 mph - N/A   Mostly Cloudy
3:48 AM 51.8 °F - 46.4 °F 82% 29.84 in 6.0 mi NE 12.7 mph - N/A   Haze
3:53 AM 52.0 °F - 46.9 °F 83% 29.85 in 6.0 mi NE 12.7 mph - N/A   Haze
4:53 AM 52.0 °F - 46.9 °F 83% 29.85 in 7.0 mi SE 5.8 mph - N/A   Overcast
5:53 AM 53.1 °F - 46.9 °F 80% 29.86 in 6.0 mi SE 6.9 mph - N/A   Overcast
6:28 AM 53.6 °F - 48.2 °F 82% 29.85 in 6.0 mi NE 8.1 mph - N/A   Overcast
6:53 AM 54.0 °F - 48.9 °F 83% 29.86 in 7.0 mi ENE 6.9 mph - N/A   Mostly Cloudy
7:53 AM 52.0 °F - 46.9 °F 83% 29.88 in 5.0 mi ENE 10.4 mph - N/A   Mostly Cloudy
8:07 AM 51.8 °F - 46.4 °F 82% 29.88 in 5.0 mi ENE 11.5 mph - N/A   Overcast
8:53 AM 51.1 °F - 46.0 °F 83% 29.90 in 4.0 mi ENE 13.8 mph - N/A   Overcast
9:29 AM 50.0 °F - 44.6 °F 82% 29.90 in 4.0 mi ENE 10.4 mph - N/A   Overcast
9:53 AM 50.0 °F - 44.1 °F 80% 29.91 in 4.0 mi ENE 11.5 mph - N/A   Overcast
10:53 AM 48.0 °F - 44.1 °F 86% 29.92 in 3.0 mi NE 11.5 mph - N/A   Overcast
11:07 AM 48.2 °F - 44.6 °F 87% 29.91 in 2.0 mi NNE 9.2 mph - 0.00 in   Light Drizzle
11:31 AM 46.4 °F 41.5 °F 44.6 °F 93% 29.91 in 1.5 mi NE 10.4 mph - 0.00 in   Light Drizzle
11:53 AM 46.0 °F 40.6 °F 44.1 °F 93% 29.91 in 1.0 mi ENE 11.5 mph - 0.00 in   Light Drizzle
12:37 PM 46.4 °F 40.4 °F 44.6 °F 93% 29.89 in 2.0 mi NE 13.8 mph - 0.00 in   Light Drizzle
12:53 PM 46.0 °F 40.2 °F 44.1 °F 93% 29.89 in 3.0 mi NE 12.7 mph - 0.00 in   Overcast
1:29 PM 46.4 °F 41.1 °F 44.6 °F 93% 29.87 in 3.0 mi ENE 11.5 mph - N/A   Overcast
1:53 PM 45.0 °F 40.1 °F 44.1 °F 97% 29.87 in 4.0 mi NE 9.2 mph - N/A   Overcast
2:53 PM 46.9 °F - 45.0 °F 93% 29.82 in 5.0 mi NE 9.2 mph - N/A   Overcast
3:53 PM 48.0 °F - 46.0 °F 93% 29.79 in 7.0 mi ENE 8.1 mph - N/A   Overcast
4:53 PM 48.9 °F - 45.0 °F 86% 29.78 in 7.0 mi ENE 5.8 mph - N/A   Overcast
5:53 PM 48.9 °F - 45.0 °F 86% 29.75 in 7.0 mi ENE 5.8 mph - N/A   Overcast
6:53 PM 48.9 °F - 46.0 °F 90% 29.75 in 6.0 mi NNE 4.6 mph - N/A   Overcast
7:53 PM 48.0 °F - 46.0 °F 93% 29.74 in 5.0 mi NNE 3.5 mph - N/A   Overcast
8:36 PM 48.2 °F - 46.4 °F 93% 29.72 in 6.0 mi East 5.8 mph - N/A   Mostly Cloudy
8:53 PM 48.0 °F - 46.0 °F 93% 29.73 in 6.0 mi ESE 3.5 mph - N/A   Scattered Clouds
9:53 PM 48.0 °F - 46.0 °F 93% 29.73 in 5.0 mi Calm Calm - N/A   Overcast
10:53 PM 48.0 °F - 45.0 °F 89% 29.73 in 6.0 mi NNW 4.6 mph - N/A   Scattered Clouds
11:53 PM 48.9 °F - 46.0 °F 90% 29.72 in 4.0 mi North 6.9 mph - 0.00 in Rain Light Rain